Multibeam Report for EX1203


Ship Name: Okeanos Explorer
Chief Scientist: Malik, Mashkoor
NOAA/OAR/OER
Source Organization: National Oceanic and Atmospheric Administration (NOAA)
Start Date: 2012-05-05
End Date: 2012-05-23


View ISO Metadata

Visit the full NCEI Bathymetry Viewer


Multibeam Bathymetry

Cruise Details

Project: Florida Escarpment and Straits Exploration
Instrument: Simrad EM302

Data Quality

Number of Files: 657
Number of Records: 1084279
BATHYMETRY DATA Quantity Percentage
Number of Beams 215484336 100%
Number of Good Beams 207447943 96.27%
Number of Zero Beams 0 0%
Number of Flagged Beams 8036393 3.73%
AMPLITUDE DATA Quantity Percentage
Number of Beams 215484336 100%
Number of Good Beams 207447943 96.27%
Number of Zero Beams 0 0%
Number of Flagged Beams 8036393 3.73%
SIDESCAN DATA Quantity Percentage
Number of Pixels 513417216 100%
Number of Good Pixels 392450198 76.44%
Number of Zero Pixels 0 0%
Number of Flagged Pixels 120967018 23.56%

Navigation Totals

Total Time: 360.0573 hours
Total Track Length: 6710.2233 km
Average Speed: 18.637 km/hr (10.0632 knots)

Cruise Bounds

Northern Extent: 35.338856
Southern Extent: 24.0789
Western Extent: -93.00182
Eastern Extent: -75.01287

Limits

Minimum Sonar Depth 1.5781 Maximum Sonar Depth 7.7703
Minimum Altitude 32.5959 Maximum Altitude 3145.3044
Minimum Depth 34.8778 Maximum Depth 3251.894
Minimum Amplitude 0 Maximum Amplitude 85.5
Minimum Sidescan 0 Maximum Sidescan 88.6

File Information

Full Resolution Bathymetry as collected (raw): 313

Files File Size Description
0000_20120506_031921_EX.all.mb58.gz 307.08MB Kongsberg multibeam vendor format
0000_20120506_081712_EX1203_MB.all.mb58.gz 45.45MB Kongsberg multibeam vendor format
0000_20120516_225320_EX1203_MB.all.mb58.gz 509.2KB Kongsberg multibeam vendor format
0001_20120506_051921_EX.all.mb58.gz 199.89MB Kongsberg multibeam vendor format
0001_20120506_085425_EX1203_MB.all.mb58.gz 151.48MB Kongsberg multibeam vendor format
0002_20120506_071921_EX.all.mb58.gz 10.16MB Kongsberg multibeam vendor format
0002_20120506_105426_EX1203_MB.all.mb58.gz 170.63MB Kongsberg multibeam vendor format
0003_20120506_073501_EX.all.mb58.gz 304.0KB Kongsberg multibeam vendor format
0003_20120506_125424_EX1203_MB.all.mb58.gz 100.98MB Kongsberg multibeam vendor format
0004_20120506_074034_EX.all.mb58.gz 0.95MB Kongsberg multibeam vendor format
0004_20120506_135322_EX1203_MB.all.mb58.gz 16.62MB Kongsberg multibeam vendor format
0005_20120506_074411_EX.all.mb58.gz 40.72MB Kongsberg multibeam vendor format
0005_20120506_140200_EX1203_MB.all.mb58.gz 191.17MB Kongsberg multibeam vendor format
0006_20120506_160201_EX1203_MB.all.mb58.gz 93.66MB Kongsberg multibeam vendor format
0007_20120506_181405_EX1203_MB.all.mb58.gz 18.84MB Kongsberg multibeam vendor format
0008_20120506_183039_EX1203_MB.all.mb58.gz 156.32MB Kongsberg multibeam vendor format
0009_20120506_203036_EX1203_MB.all.mb58.gz 102.98MB Kongsberg multibeam vendor format
0010_20120506_213733_EX1203_MB.all.mb58.gz 14.48MB Kongsberg multibeam vendor format
0011_20120506_214514_EX1203_MB.all.mb58.gz 171.43MB Kongsberg multibeam vendor format
0012_20120506_234514_EX1203_MB.all.mb58.gz 19.31MB Kongsberg multibeam vendor format
0013_20120507_000004_EX1203_MB.all.mb58.gz 68.21MB Kongsberg multibeam vendor format
0014_20120507_005913_EX1203_MB.all.mb58.gz 1.85MB Kongsberg multibeam vendor format
0015_20120507_010740_EX1203_MB.all.mb58.gz 121.77MB Kongsberg multibeam vendor format
0016_20120507_024945_EX1203_MB.all.mb58.gz 12.81MB Kongsberg multibeam vendor format
0017_20120507_025919_EX1203_MB.all.mb58.gz 128.77MB Kongsberg multibeam vendor format
0018_20120507_044748_EX1203_MB.all.mb58.gz 9.13MB Kongsberg multibeam vendor format
0019_20120507_045633_EX1203_MB.all.mb58.gz 130.78MB Kongsberg multibeam vendor format
0020_20120507_064955_EX1203_MB.all.mb58.gz 13.99MB Kongsberg multibeam vendor format
0021_20120507_070005_EX1203_MB.all.mb58.gz 137.90MB Kongsberg multibeam vendor format
0022_20120507_090005_EX1203_MB.all.mb58.gz 149.1KB Kongsberg multibeam vendor format
0023_20120507_090013_EX1203_MB.all.mb58.gz 9.65MB Kongsberg multibeam vendor format
0024_20120507_090934_EX1203_MB.all.mb58.gz 133.64MB Kongsberg multibeam vendor format
0025_20120507_110934_EX1203_MB.all.mb58.gz 51.07MB Kongsberg multibeam vendor format
0026_20120507_114855_EX1203_MB.all.mb58.gz 11.73MB Kongsberg multibeam vendor format
0027_20120507_115737_EX1203_MB.all.mb58.gz 140.09MB Kongsberg multibeam vendor format
0028_20120507_135737_EX1203_MB.all.mb58.gz 48.89MB Kongsberg multibeam vendor format
0029_20120507_144327_EX1203_MB.all.mb58.gz 11.28MB Kongsberg multibeam vendor format
0030_20120507_145404_EX1203_MB.all.mb58.gz 128.03MB Kongsberg multibeam vendor format
0031_20120507_165403_EX1203_MB.all.mb58.gz 41.04MB Kongsberg multibeam vendor format
0032_20120507_173942_EX1203_MB.all.mb58.gz 46.35MB Kongsberg multibeam vendor format
0033_20120507_183154_EX1203_MB.all.mb58.gz 90.26MB Kongsberg multibeam vendor format
0034_20120507_195645_EX1203_MB.all.mb58.gz 8.59MB Kongsberg multibeam vendor format
0035_20120507_200456_EX1203_MB.all.mb58.gz 132.20MB Kongsberg multibeam vendor format
0036_20120507_220455_EX1203_MB.all.mb58.gz 13.63MB Kongsberg multibeam vendor format
0037_20120507_221526_EX1203_MB.all.mb58.gz 10.92MB Kongsberg multibeam vendor format
0038_20120507_222350_EX1203_MB.all.mb58.gz 113.66MB Kongsberg multibeam vendor format
0039_20120508_000228_EX1203_MB.all.mb58.gz 31.88MB Kongsberg multibeam vendor format
0040_20120508_003423_EX1203_MB.all.mb58.gz 8.56MB Kongsberg multibeam vendor format
0041_20120508_004233_EX1203_MB.all.mb58.gz 128.82MB Kongsberg multibeam vendor format
0042_20120508_024230_EX1203_MB.all.mb58.gz 15.61MB Kongsberg multibeam vendor format
0043_20120508_025458_EX1203_MB.all.mb58.gz 12.82MB Kongsberg multibeam vendor format
0044_20120508_030513_EX1203_MB.all.mb58.gz 128.63MB Kongsberg multibeam vendor format
0045_20120508_050426_EX1203_MB.all.mb58.gz 12.42MB Kongsberg multibeam vendor format
0046_20120508_051617_EX1203_MB.all.mb58.gz 114.15MB Kongsberg multibeam vendor format
0047_20120508_070941_EX1203_MB.all.mb58.gz 10.04MB Kongsberg multibeam vendor format
0048_20120508_071805_EX1203_MB.all.mb58.gz 94.77MB Kongsberg multibeam vendor format
0049_20120508_085149_EX1203_MB.all.mb58.gz 7.52MB Kongsberg multibeam vendor format
0050_20120508_090059_EX1203_MB.all.mb58.gz 222.5KB Kongsberg multibeam vendor format
0051_20120508_090115_EX1203_MB.all.mb58.gz 85.85MB Kongsberg multibeam vendor format
0052_20120508_102742_EX1203_MB.all.mb58.gz 10.46MB Kongsberg multibeam vendor format
0053_20120508_103733_EX1203_MB.all.mb58.gz 37.89MB Kongsberg multibeam vendor format
0054_20120508_111410_EX1203_MB.all.mb58.gz 9.96MB Kongsberg multibeam vendor format
0055_20120508_112335_EX1203_MB.all.mb58.gz 16.38MB Kongsberg multibeam vendor format
0055_20120508_124327_EX1203_MB.all.mb58.gz 38.90MB Kongsberg multibeam vendor format
0056_20120508_131638_EX1203_MB.all.mb58.gz 16.56MB Kongsberg multibeam vendor format
0057_20120508_133050_EX1203_MB.all.mb58.gz 65.36MB Kongsberg multibeam vendor format
0058_20120508_142727_EX1203_MB.all.mb58.gz 21.94MB Kongsberg multibeam vendor format
0059_20120508_144335_EX1203_MB.all.mb58.gz 18.13MB Kongsberg multibeam vendor format
0060_20120508_145721_EX1203_MB.all.mb58.gz 38.25MB Kongsberg multibeam vendor format
0061_20120508_152626_EX1203_MB.all.mb58.gz 186.34MB Kongsberg multibeam vendor format
0062_20120508_172626_EX1203_MB.all.mb58.gz 12.94MB Kongsberg multibeam vendor format
0063_20120508_173302_EX1203_MB.all.mb58.gz 20.92MB Kongsberg multibeam vendor format
0064_20120508_174405_EX1203_MB.all.mb58.gz 156.16MB Kongsberg multibeam vendor format
0065_20120508_192651_EX1203_MB.all.mb58.gz 10.55MB Kongsberg multibeam vendor format
0066_20120508_193421_EX1203_MB.all.mb58.gz 24.15MB Kongsberg multibeam vendor format
0067_20120508_195228_EX1203_MB.all.mb58.gz 74.14MB Kongsberg multibeam vendor format
0068_20120508_212026_EX1203_MB.all.mb58.gz 188.05MB Kongsberg multibeam vendor format
0069_20120508_232026_EX1203_MB.all.mb58.gz 63.02MB Kongsberg multibeam vendor format
0070_20120509_000001_EX1203_MB.all.mb58.gz 169.74MB Kongsberg multibeam vendor format
0071_20120509_020001_EX1203_MB.all.mb58.gz 148.60MB Kongsberg multibeam vendor format
0072_20120509_040001_EX1203_MB.all.mb58.gz 114.82MB Kongsberg multibeam vendor format
0073_20120509_053603_EX1203_MB.all.mb58.gz 134.29MB Kongsberg multibeam vendor format
0074_20120509_073603_EX1203_MB.all.mb58.gz 103.85MB Kongsberg multibeam vendor format
0075_20120509_091327_EX1203_MB.all.mb58.gz 8.81MB Kongsberg multibeam vendor format
0076_20120509_092048_EX1203_MB.all.mb58.gz 127.87MB Kongsberg multibeam vendor format
0077_20120509_112048_EX1203_MB.all.mb58.gz 111.05MB Kongsberg multibeam vendor format
0078_20120509_125945_EX1203_MB.all.mb58.gz 9.47MB Kongsberg multibeam vendor format
0079_20120509_130817_EX1203_MB.all.mb58.gz 131.22MB Kongsberg multibeam vendor format
0080_20120509_150819_EX1203_MB.all.mb58.gz 100.01MB Kongsberg multibeam vendor format
0081_20120509_164237_EX1203_MB.all.mb58.gz 7.11MB Kongsberg multibeam vendor format
0082_20120509_164844_EX1203_MB.all.mb58.gz 126.78MB Kongsberg multibeam vendor format
0083_20120509_184844_EX1203_MB.all.mb58.gz 111.83MB Kongsberg multibeam vendor format
0084_20120509_203147_EX1203_MB.all.mb58.gz 14.11MB Kongsberg multibeam vendor format
0085_20120509_204441_EX1203_MB.all.mb58.gz 128.01MB Kongsberg multibeam vendor format
0086_20120509_224444_EX1203_MB.all.mb58.gz 78.28MB Kongsberg multibeam vendor format
0087_20120510_000201_EX1203_MB.all.mb58.gz 21.78MB Kongsberg multibeam vendor format
0088_20120510_002150_EX1203_MB.all.mb58.gz 13.42MB Kongsberg multibeam vendor format
0089_20120510_003400_EX1203_MB.all.mb58.gz 114.74MB Kongsberg multibeam vendor format
0090_20120510_023359_EX1203_MB.all.mb58.gz 105.06MB Kongsberg multibeam vendor format
0091_20120510_041119_EX1203_MB.all.mb58.gz 18.20MB Kongsberg multibeam vendor format
0092_20120510_042803_EX1203_MB.all.mb58.gz 126.83MB Kongsberg multibeam vendor format
0093_20120510_062803_EX1203_MB.all.mb58.gz 96.24MB Kongsberg multibeam vendor format
0094_20120510_080945_EX1203_MB.all.mb58.gz 13.27MB Kongsberg multibeam vendor format
0095_20120510_082150_EX1203_MB.all.mb58.gz 113.23MB Kongsberg multibeam vendor format
0096_20120510_102153_EX1203_MB.all.mb58.gz 100.96MB Kongsberg multibeam vendor format
0097_20120510_115520_EX1203_MB.all.mb58.gz 15.11MB Kongsberg multibeam vendor format
0098_20120510_120905_EX1203_MB.all.mb58.gz 127.59MB Kongsberg multibeam vendor format
0099_20120510_140903_EX1203_MB.all.mb58.gz 101.99MB Kongsberg multibeam vendor format
0100_20120510_155730_EX1203_MB.all.mb58.gz 14.60MB Kongsberg multibeam vendor format
0101_20120510_161055_EX1203_MB.all.mb58.gz 110.58MB Kongsberg multibeam vendor format
0102_20120510_181056_EX1203_MB.all.mb58.gz 119.15MB Kongsberg multibeam vendor format
0103_20120510_200917_EX1203_MB.all.mb58.gz 13.37MB Kongsberg multibeam vendor format
0104_20120510_202234_EX1203_MB.all.mb58.gz 116.32MB Kongsberg multibeam vendor format
0105_20120510_222234_EX1203_MB.all.mb58.gz 78.96MB Kongsberg multibeam vendor format
0106_20120510_234813_EX1203_MB.all.mb58.gz 11.92MB Kongsberg multibeam vendor format
0107_20120511_000004_EX1203_MB.all.mb58.gz 106.47MB Kongsberg multibeam vendor format
0108_20120511_020004_EX1203_MB.all.mb58.gz 18.74MB Kongsberg multibeam vendor format
0109_20120511_022253_EX1203_MB.all.mb58.gz 19.89MB Kongsberg multibeam vendor format
0110_20120511_024641_EX1203_MB.all.mb58.gz 70.04MB Kongsberg multibeam vendor format
0111_20120511_041055_EX1203_MB.all.mb58.gz 10.55MB Kongsberg multibeam vendor format
0112_20120511_042330_EX1203_MB.all.mb58.gz 58.42MB Kongsberg multibeam vendor format
0113_20120511_052938_EX1203_MB.all.mb58.gz 10.56MB Kongsberg multibeam vendor format
0114_20120511_054209_EX1203_MB.all.mb58.gz 66.68MB Kongsberg multibeam vendor format
0115_20120511_065123_EX1203_MB.all.mb58.gz 28.83MB Kongsberg multibeam vendor format
0116_20120511_072544_EX1203_MB.all.mb58.gz 95.39MB Kongsberg multibeam vendor format
0117_20120511_092211_EX1203_MB.all.mb58.gz 22.67MB Kongsberg multibeam vendor format
0118_20120511_095017_EX1203_MB.all.mb58.gz 82.42MB Kongsberg multibeam vendor format
0119_20120511_113116_EX1203_MB.all.mb58.gz 76.29MB Kongsberg multibeam vendor format
0120_20120511_130450_EX1203_MB.all.mb58.gz 95.41MB Kongsberg multibeam vendor format
0121_20120511_150456_EX1203_MB.all.mb58.gz 91.40MB Kongsberg multibeam vendor format
0122_20120511_170450_EX1203_MB.all.mb58.gz 90.88MB Kongsberg multibeam vendor format
0123_20120511_190451_EX1203_MB.all.mb58.gz 89.65MB Kongsberg multibeam vendor format
0124_20120511_210449_EX1203_MB.all.mb58.gz 88.41MB Kongsberg multibeam vendor format
0125_20120511_230458_EX1203_MB.all.mb58.gz 19.16MB Kongsberg multibeam vendor format
0126_20120511_233107_EX1203_MB.all.mb58.gz 3.48MB Kongsberg multibeam vendor format
0127_20120511_233548_EX1203_MB.all.mb58.gz 17.88MB Kongsberg multibeam vendor format
0128_20120512_000005_EX1203_MB.all.mb58.gz 87.73MB Kongsberg multibeam vendor format
0129_20120512_020005_EX1203_MB.all.mb58.gz 67.75MB Kongsberg multibeam vendor format
0130_20120512_033526_EX1203_MB.all.mb58.gz 2.31MB Kongsberg multibeam vendor format
0131_20120512_033838_EX1203_MB.all.mb58.gz 36.71MB Kongsberg multibeam vendor format
0132_20120512_043032_EX1203_MB.all.mb58.gz 3.30MB Kongsberg multibeam vendor format
0133_20120512_043508_EX1203_MB.all.mb58.gz 84.80MB Kongsberg multibeam vendor format
0134_20120512_063500_EX1203_MB.all.mb58.gz 25.41MB Kongsberg multibeam vendor format
0135_20120512_071053_EX1203_MB.all.mb58.gz 47.10MB Kongsberg multibeam vendor format
0136_20120512_081434_EX1203_MB.all.mb58.gz 3.11MB Kongsberg multibeam vendor format
0137_20120512_081828_EX1203_MB.all.mb58.gz 93.10MB Kongsberg multibeam vendor format
0138_20120512_101829_EX1203_MB.all.mb58.gz 92.84MB Kongsberg multibeam vendor format
0139_20120512_121830_EX1203_MB.all.mb58.gz 78.40MB Kongsberg multibeam vendor format
0142_20120512_135923_EX1203_MB.all.mb58.gz 120.80MB Kongsberg multibeam vendor format
0143_20120512_155919_EX1203_MB.all.mb58.gz 122.76MB Kongsberg multibeam vendor format
0144_20120512_175918_EX1203_MB.all.mb58.gz 137.86MB Kongsberg multibeam vendor format
0145_20120512_195917_EX1203_MB.all.mb58.gz 160.57MB Kongsberg multibeam vendor format
0146_20120512_215918_EX1203_MB.all.mb58.gz 149.48MB Kongsberg multibeam vendor format
0147_20120512_235501_EX1203_MB.all.mb58.gz 6.30MB Kongsberg multibeam vendor format
0148_20120513_000001_EX1203_MB.all.mb58.gz 46.57MB Kongsberg multibeam vendor format
0149_20120513_003807_EX1203_MB.all.mb58.gz 14.19MB Kongsberg multibeam vendor format
0150_20120513_005027_EX1203_MB.all.mb58.gz 73.58MB Kongsberg multibeam vendor format
0151_20120513_015621_EX1203_MB.all.mb58.gz 3.57MB Kongsberg multibeam vendor format
0152_20120513_015930_EX1203_MB.all.mb58.gz 136.42MB Kongsberg multibeam vendor format
0153_20120513_035932_EX1203_MB.all.mb58.gz 2.07MB Kongsberg multibeam vendor format
0154_20120513_040124_EX1203_MB.all.mb58.gz 11.50MB Kongsberg multibeam vendor format
0155_20120513_041057_EX1203_MB.all.mb58.gz 144.60MB Kongsberg multibeam vendor format
0156_20120513_060812_EX1203_MB.all.mb58.gz 13.75MB Kongsberg multibeam vendor format
0157_20120513_061923_EX1203_MB.all.mb58.gz 150.11MB Kongsberg multibeam vendor format
0158_20120513_081924_EX1203_MB.all.mb58.gz 16.66MB Kongsberg multibeam vendor format
0159_20120513_083302_EX1203_MB.all.mb58.gz 103.66MB Kongsberg multibeam vendor format
0160_20120513_095535_EX1203_MB.all.mb58.gz 154.94MB Kongsberg multibeam vendor format
0161_20120513_115534_EX1203_MB.all.mb58.gz 152.25MB Kongsberg multibeam vendor format
0162_20120513_135534_EX1203_MB.all.mb58.gz 163.05MB Kongsberg multibeam vendor format
0163_20120513_155533_EX1203_MB.all.mb58.gz 266.53MB Kongsberg multibeam vendor format
0164_20120513_175400_EX1203_MB.all.mb58.gz 179.28MB Kongsberg multibeam vendor format
0165_20120513_195402_EX1203_MB.all.mb58.gz 58.96MB Kongsberg multibeam vendor format
0166_20120513_204654_EX1203_MB.all.mb58.gz 136.14MB Kongsberg multibeam vendor format
0167_20120513_224653_EX1203_MB.all.mb58.gz 45.29MB Kongsberg multibeam vendor format
0168_20120513_232415_EX1203_MB.all.mb58.gz 43.09MB Kongsberg multibeam vendor format
0169_20120514_000003_EX1203_MB.all.mb58.gz 134.63MB Kongsberg multibeam vendor format
0170_20120514_020002_EX1203_MB.all.mb58.gz 129.13MB Kongsberg multibeam vendor format
0171_20120514_040002_EX1203_MB.all.mb58.gz 62.64MB Kongsberg multibeam vendor format
0172_20120514_045819_EX1203_MB.all.mb58.gz 132.54MB Kongsberg multibeam vendor format
0173_20120514_065817_EX1203_MB.all.mb58.gz 172.71MB Kongsberg multibeam vendor format
0174_20120514_085818_EX1203_MB.all.mb58.gz 190.95MB Kongsberg multibeam vendor format
0175_20120514_105818_EX1203_MB.all.mb58.gz 184.98MB Kongsberg multibeam vendor format
0176_20120514_125818_EX1203_MB.all.mb58.gz 148.24MB Kongsberg multibeam vendor format
0177_20120514_145819_EX1203_MB.all.mb58.gz 22.28MB Kongsberg multibeam vendor format
0178_20120514_151749_EX1203_MB.all.mb58.gz 159.75MB Kongsberg multibeam vendor format
0179_20120514_224136_EX1203_MB.all.mb58.gz 100.58MB Kongsberg multibeam vendor format
0180_20120515_000001_EX1203_MB.all.mb58.gz 134.38MB Kongsberg multibeam vendor format
0181_20120515_020002_EX1203_MB.all.mb58.gz 157.20MB Kongsberg multibeam vendor format
0182_20120515_040001_EX1203_MB.all.mb58.gz 154.13MB Kongsberg multibeam vendor format
0183_20120515_060002_EX1203_MB.all.mb58.gz 154.48MB Kongsberg multibeam vendor format
0184_20120515_080000_EX1203_MB.all.mb58.gz 159.05MB Kongsberg multibeam vendor format
0185_20120515_100000_EX1203_MB.all.mb58.gz 76.38MB Kongsberg multibeam vendor format
0186_20120515_105430_EX1203_MB.all.mb58.gz 155.34MB Kongsberg multibeam vendor format
0187_20120515_125429_EX1203_MB.all.mb58.gz 139.94MB Kongsberg multibeam vendor format
0188_20120515_145430_EX1203_MB.all.mb58.gz 143.86MB Kongsberg multibeam vendor format
0189_20120515_165429_EX1203_MB.all.mb58.gz 143.10MB Kongsberg multibeam vendor format
0191_20120515_192450_EX1203_MB.all.mb58.gz 95.99MB Kongsberg multibeam vendor format
0192_20120515_204342_EX1203_MB.all.mb58.gz 144.13MB Kongsberg multibeam vendor format
0193_20120515_224344_EX1203_MB.all.mb58.gz 94.69MB Kongsberg multibeam vendor format
0194_20120516_000045_EX1203_MB.all.mb58.gz 147.88MB Kongsberg multibeam vendor format
0195_20120516_020044_EX1203_MB.all.mb58.gz 149.68MB Kongsberg multibeam vendor format
0196_20120516_040045_EX1203_MB.all.mb58.gz 34.89MB Kongsberg multibeam vendor format
0197_20120516_042756_EX1203_MB.all.mb58.gz 7.20MB Kongsberg multibeam vendor format
0198_20120516_043326_EX1203_MB.all.mb58.gz 86.84MB Kongsberg multibeam vendor format
0199_20120516_054535_EX1203_MB.all.mb58.gz 16.29MB Kongsberg multibeam vendor format
0200_20120516_055935_EX1203_MB.all.mb58.gz 98.58MB Kongsberg multibeam vendor format
0201_20120516_072144_EX1203_MB.all.mb58.gz 17.75MB Kongsberg multibeam vendor format
0202_20120516_073524_EX1203_MB.all.mb58.gz 83.06MB Kongsberg multibeam vendor format
0203_20120516_084411_EX1203_MB.all.mb58.gz 16.63MB Kongsberg multibeam vendor format
0204_20120516_085835_EX1203_MB.all.mb58.gz 100.19MB Kongsberg multibeam vendor format
0205_20120516_102210_EX1203_MB.all.mb58.gz 17.76MB Kongsberg multibeam vendor format
0206_20120516_103601_EX1203_MB.all.mb58.gz 81.26MB Kongsberg multibeam vendor format
0207_20120516_114320_EX1203_MB.all.mb58.gz 11.71MB Kongsberg multibeam vendor format
0208_20120516_115334_EX1203_MB.all.mb58.gz 95.07MB Kongsberg multibeam vendor format
0209_20120516_131312_EX1203_MB.all.mb58.gz 21.39MB Kongsberg multibeam vendor format
0210_20120516_133000_EX1203_MB.all.mb58.gz 83.24MB Kongsberg multibeam vendor format
0211_20120516_143942_EX1203_MB.all.mb58.gz 13.10MB Kongsberg multibeam vendor format
0212_20120516_145058_EX1203_MB.all.mb58.gz 91.60MB Kongsberg multibeam vendor format
0213_20120516_160816_EX1203_MB.all.mb58.gz 17.06MB Kongsberg multibeam vendor format
0214_20120516_162143_EX1203_MB.all.mb58.gz 122.21MB Kongsberg multibeam vendor format
0215_20120516_180557_EX1203_MB.all.mb58.gz 131.05MB Kongsberg multibeam vendor format
0216_20120516_200558_EX1203_MB.all.mb58.gz 32.63MB Kongsberg multibeam vendor format
0217_20120516_203555_EX1203_MB.all.mb58.gz 15.54MB Kongsberg multibeam vendor format
0218_20120516_205019_EX1203_MB.all.mb58.gz 128.96MB Kongsberg multibeam vendor format
0219_20120516_225020_EX1203_MB.all.mb58.gz 3.19MB Kongsberg multibeam vendor format
0219_20120516_230323_EX1203_MB.all.mb58.gz 45.12MB Kongsberg multibeam vendor format
0220_20120516_234530_EX1203_MB.all.mb58.gz 15.72MB Kongsberg multibeam vendor format
0221_20120517_000003_EX1203_MB.all.mb58.gz 128.85MB Kongsberg multibeam vendor format
0222_20120517_020003_EX1203_MB.all.mb58.gz 132.22MB Kongsberg multibeam vendor format
0223_20120517_040001_EX1203_MB.all.mb58.gz 32.51MB Kongsberg multibeam vendor format
0224_20120517_042716_EX1203_MB.all.mb58.gz 23.57MB Kongsberg multibeam vendor format
0225_20120517_044630_EX1203_MB.all.mb58.gz 138.34MB Kongsberg multibeam vendor format
0226_20120517_064632_EX1203_MB.all.mb58.gz 128.95MB Kongsberg multibeam vendor format
0227_20120517_084632_EX1203_MB.all.mb58.gz 18.11MB Kongsberg multibeam vendor format
0228_20120517_090334_EX1203_MB.all.mb58.gz 9.55MB Kongsberg multibeam vendor format
0229_20120517_091233_EX1203_MB.all.mb58.gz 129.80MB Kongsberg multibeam vendor format
0230_20120517_111234_EX1203_MB.all.mb58.gz 110.61MB Kongsberg multibeam vendor format
0231_20120517_124823_EX1203_MB.all.mb58.gz 19.06MB Kongsberg multibeam vendor format
0232_20120517_130352_EX1203_MB.all.mb58.gz 139.32MB Kongsberg multibeam vendor format
0233_20120517_150353_EX1203_MB.all.mb58.gz 91.30MB Kongsberg multibeam vendor format
0234_20120517_162748_EX1203_MB.all.mb58.gz 9.94MB Kongsberg multibeam vendor format
0235_20120517_163655_EX1203_MB.all.mb58.gz 106.47MB Kongsberg multibeam vendor format
0236_20120517_192555_EX1203_MB.all.mb58.gz 49.37MB Kongsberg multibeam vendor format
0237_20120517_200945_EX1203_MB.all.mb58.gz 83.02MB Kongsberg multibeam vendor format
0238_20120517_211927_EX1203_MB.all.mb58.gz 14.23MB Kongsberg multibeam vendor format
0239_20120517_213100_EX1203_MB.all.mb58.gz 140.85MB Kongsberg multibeam vendor format
0240_20120517_233059_EX1203_MB.all.mb58.gz 32.20MB Kongsberg multibeam vendor format
0241_20120518_000003_EX1203_MB.all.mb58.gz 24.39MB Kongsberg multibeam vendor format
0242_20120518_002142_EX1203_MB.all.mb58.gz 13.28MB Kongsberg multibeam vendor format
0243_20120518_003331_EX1203_MB.all.mb58.gz 141.19MB Kongsberg multibeam vendor format
0244_20120518_023332_EX1203_MB.all.mb58.gz 1.04MB Kongsberg multibeam vendor format
0245_20120518_023423_EX1203_MB.all.mb58.gz 9.40MB Kongsberg multibeam vendor format
0246_20120518_024200_EX1203_MB.all.mb58.gz 144.29MB Kongsberg multibeam vendor format
0247_20120518_044202_EX1203_MB.all.mb58.gz 68.95MB Kongsberg multibeam vendor format
0248_20120518_053942_EX1203_MB.all.mb58.gz 14.14MB Kongsberg multibeam vendor format
0249_20120518_055128_EX1203_MB.all.mb58.gz 144.99MB Kongsberg multibeam vendor format
0250_20120518_075128_EX1203_MB.all.mb58.gz 9.83MB Kongsberg multibeam vendor format
0251_20120518_075928_EX1203_MB.all.mb58.gz 14.42MB Kongsberg multibeam vendor format
0252_20120518_081111_EX1203_MB.all.mb58.gz 145.46MB Kongsberg multibeam vendor format
0253_20120518_101110_EX1203_MB.all.mb58.gz 34.86MB Kongsberg multibeam vendor format
0254_20120518_103953_EX1203_MB.all.mb58.gz 13.66MB Kongsberg multibeam vendor format
0255_20120518_105101_EX1203_MB.all.mb58.gz 133.20MB Kongsberg multibeam vendor format
0256_20120518_123941_EX1203_MB.all.mb58.gz 75.73MB Kongsberg multibeam vendor format
0257_20120518_134113_EX1203_MB.all.mb58.gz 56.48MB Kongsberg multibeam vendor format
0258_20120518_142808_EX1203_MB.all.mb58.gz 25.11MB Kongsberg multibeam vendor format
0259_20120518_144916_EX1203_MB.all.mb58.gz 35.63MB Kongsberg multibeam vendor format
0260_20120518_151833_EX1203_MB.all.mb58.gz 150.97MB Kongsberg multibeam vendor format
0261_20120518_171832_EX1203_MB.all.mb58.gz 48.25MB Kongsberg multibeam vendor format
0262_20120518_175646_EX1203_MB.all.mb58.gz 147.79MB Kongsberg multibeam vendor format
0263_20120518_195647_EX1203_MB.all.mb58.gz 150.34MB Kongsberg multibeam vendor format
0264_20120518_215645_EX1203_MB.all.mb58.gz 82.11MB Kongsberg multibeam vendor format
0265_20120518_230014_EX1203_MB.all.mb58.gz 75.44MB Kongsberg multibeam vendor format
0266_20120519_000010_EX1203_MB.all.mb58.gz 152.44MB Kongsberg multibeam vendor format
0267_20120519_020009_EX1203_MB.all.mb58.gz 35.40MB Kongsberg multibeam vendor format
0268_20120519_022737_EX1203_MB.all.mb58.gz 17.53MB Kongsberg multibeam vendor format
0269_20120519_024116_EX1203_MB.all.mb58.gz 101.38MB Kongsberg multibeam vendor format
0270_20120519_044116_EX1203_MB.all.mb58.gz 101.31MB Kongsberg multibeam vendor format
0271_20120519_064115_EX1203_MB.all.mb58.gz 32.64MB Kongsberg multibeam vendor format
0272_20120519_071919_EX1203_MB.all.mb58.gz 13.69MB Kongsberg multibeam vendor format
0273_20120519_073530_EX1203_MB.all.mb58.gz 102.53MB Kongsberg multibeam vendor format
0274_20120519_093532_EX1203_MB.all.mb58.gz 106.68MB Kongsberg multibeam vendor format
0275_20120519_113530_EX1203_MB.all.mb58.gz 58.63MB Kongsberg multibeam vendor format
0276_20120519_124419_EX1203_MB.all.mb58.gz 10.32MB Kongsberg multibeam vendor format
0277_20120519_125629_EX1203_MB.all.mb58.gz 21.45MB Kongsberg multibeam vendor format
0278_20120519_132143_EX1203_MB.all.mb58.gz 100.13MB Kongsberg multibeam vendor format
0279_20120519_152143_EX1203_MB.all.mb58.gz 109.61MB Kongsberg multibeam vendor format
0280_20120519_170642_EX1203_MB.all.mb58.gz 20.13MB Kongsberg multibeam vendor format
0281_20120519_172619_EX1203_MB.all.mb58.gz 124.33MB Kongsberg multibeam vendor format
0282_20120519_192557_EX1203_MB.all.mb58.gz 146.80MB Kongsberg multibeam vendor format
0283_20120519_212557_EX1203_MB.all.mb58.gz 154.53MB Kongsberg multibeam vendor format
0284_20120519_232557_EX1203_MB.all.mb58.gz 43.47MB Kongsberg multibeam vendor format
0285_20120520_000004_EX1203_MB.all.mb58.gz 146.16MB Kongsberg multibeam vendor format
0286_20120520_020004_EX1203_MB.all.mb58.gz 169.65MB Kongsberg multibeam vendor format
0287_20120520_040003_EX1203_MB.all.mb58.gz 135.74MB Kongsberg multibeam vendor format
0288_20120521_210313_EX1203_MB.all.mb58.gz 280.54MB Kongsberg multibeam vendor format
0289_20120521_222816_EX1203_MB.all.mb58.gz 137.36MB Kongsberg multibeam vendor format
0290_20120522_000032_EX1203_MB.all.mb58.gz 126.79MB Kongsberg multibeam vendor format
0291_20120522_020030_EX1203_MB.all.mb58.gz 122.27MB Kongsberg multibeam vendor format
0292_20120522_040030_EX1203_MB.all.mb58.gz 151.11MB Kongsberg multibeam vendor format
0293_20120522_060030_EX1203_MB.all.mb58.gz 147.70MB Kongsberg multibeam vendor format
0294_20120522_080031_EX1203_MB.all.mb58.gz 156.55MB Kongsberg multibeam vendor format
0295_20120522_100030_EX1203_MB.all.mb58.gz 163.81MB Kongsberg multibeam vendor format
0296_20120522_120030_EX1203_MB.all.mb58.gz 170.32MB Kongsberg multibeam vendor format
0297_20120522_140030_EX1203_MB.all.mb58.gz 171.57MB Kongsberg multibeam vendor format
0298_20120522_160030_EX1203_MB.all.mb58.gz 169.72MB Kongsberg multibeam vendor format
0299_20120522_180029_EX1203_MB.all.mb58.gz 121.48MB Kongsberg multibeam vendor format
0300_20120522_193442_EX1203_MB.all.mb58.gz 149.77MB Kongsberg multibeam vendor format
0301_20120522_213441_EX1203_MB.all.mb58.gz 141.47MB Kongsberg multibeam vendor format
0302_20120522_233441_EX1203_MB.all.mb58.gz 22.50MB Kongsberg multibeam vendor format
0303_20120523_000008_EX1203_MB.all.mb58.gz 95.19MB Kongsberg multibeam vendor format
0304_20120523_020011_EX1203_MB.all.mb58.gz 67.26MB Kongsberg multibeam vendor format
0305_20120523_032606_EX1203_MB.all.mb58.gz 94.30MB Kongsberg multibeam vendor format
0306_20120523_052601_EX1203_MB.all.mb58.gz 170.72MB Kongsberg multibeam vendor format

Full Resolution Bathymetry (processed): 311

Files File Size Description
EX1203_EX03192012_2012-127_0000_20120506_031921_EX.txt.mb162 59.08MB Generic XYZ sounding format
EX1203_EX03192012_2012-127_0000_20120506_081712_EX1203_MB.txt.mb162 4.10MB Generic XYZ sounding format
EX1203_EX03192012_2012-127_0001_20120506_051921_EX.txt.mb162 27.38MB Generic XYZ sounding format
EX1203_EX03192012_2012-127_0001_20120506_085425_EX1203_MB.txt.mb162 13.49MB Generic XYZ sounding format
EX1203_EX03192012_2012-127_0002_20120506_071921_EX.txt.mb162 0.87MB Generic XYZ sounding format
EX1203_EX03192012_2012-127_0002_20120506_105426_EX1203_MB.txt.mb162 19.14MB Generic XYZ sounding format
EX1203_EX03192012_2012-127_0003_20120506_125424_EX1203_MB.txt.mb162 14.50MB Generic XYZ sounding format
EX1203_EX03192012_2012-127_0004_20120506_135322_EX1203_MB.txt.mb162 2.49MB Generic XYZ sounding format
EX1203_EX03192012_2012-127_0005_20120506_074411_EX.txt.mb162 4.73MB Generic XYZ sounding format
EX1203_EX03192012_2012-127_0005_20120506_140200_EX1203_MB.txt.mb162 25.08MB Generic XYZ sounding format
EX1203_EX03192012_2012-127_0006_20120506_160201_EX1203_MB.txt.mb162 8.58MB Generic XYZ sounding format
EX1203_EX03192012_2012-127_0007_20120506_181405_EX1203_MB.txt.mb162 1.39MB Generic XYZ sounding format
EX1203_EX03192012_2012-127_0008_20120506_183039_EX1203_MB.txt.mb162 15.36MB Generic XYZ sounding format
EX1203_EX03192012_2012-127_0009_20120506_203036_EX1203_MB.txt.mb162 13.16MB Generic XYZ sounding format
EX1203_EX03192012_2012-127_0010_20120506_213733_EX1203_MB.txt.mb162 2.05MB Generic XYZ sounding format
EX1203_EX03192012_2012-127_0011_20120506_214514_EX1203_MB.txt.mb162 19.62MB Generic XYZ sounding format
EX1203_EX03192012_2012-127_0012_20120506_234514_EX1203_MB.txt.mb162 1.78MB Generic XYZ sounding format
EX1203_EX03192012_2012-128_0013_20120507_000004_EX1203_MB.txt.mb162 5.52MB Generic XYZ sounding format
EX1203_EX03192012_2012-128_0014_20120507_005913_EX1203_MB.txt.mb162 130.0KB Generic XYZ sounding format
EX1203_EX03192012_2012-128_0015_20120507_010740_EX1203_MB.txt.mb162 10.44MB Generic XYZ sounding format
EX1203_EX03192012_2012-128_0016_20120507_024945_EX1203_MB.txt.mb162 1.27MB Generic XYZ sounding format
EX1203_EX03192012_2012-128_0017_20120507_025919_EX1203_MB.txt.mb162 10.79MB Generic XYZ sounding format
EX1203_EX03192012_2012-128_0018_20120507_044748_EX1203_MB.txt.mb162 0.55MB Generic XYZ sounding format
EX1203_EX03192012_2012-128_0019_20120507_045633_EX1203_MB.txt.mb162 10.27MB Generic XYZ sounding format
EX1203_EX03192012_2012-128_0020_20120507_064955_EX1203_MB.txt.mb162 1.47MB Generic XYZ sounding format
EX1203_EX03192012_2012-128_0021_20120507_070005_EX1203_MB.txt.mb162 10.58MB Generic XYZ sounding format
EX1203_EX03192012_2012-128_0022_20120507_090005_EX1203_MB.txt.mb162 8.9KB Generic XYZ sounding format
EX1203_EX03192012_2012-128_0023_20120507_090013_EX1203_MB.txt.mb162 0.57MB Generic XYZ sounding format
EX1203_EX03192012_2012-128_0024_20120507_090934_EX1203_MB.txt.mb162 9.69MB Generic XYZ sounding format
EX1203_EX03192012_2012-128_0025_20120507_110934_EX1203_MB.txt.mb162 4.84MB Generic XYZ sounding format
EX1203_EX03192012_2012-128_0026_20120507_114855_EX1203_MB.txt.mb162 1.15MB Generic XYZ sounding format
EX1203_EX03192012_2012-128_0027_20120507_115737_EX1203_MB.txt.mb162 11.32MB Generic XYZ sounding format
EX1203_EX03192012_2012-128_0028_20120507_135737_EX1203_MB.txt.mb162 3.23MB Generic XYZ sounding format
EX1203_EX03192012_2012-128_0029_20120507_144327_EX1203_MB.txt.mb162 0.71MB Generic XYZ sounding format
EX1203_EX03192012_2012-128_0030_20120507_145404_EX1203_MB.txt.mb162 8.71MB Generic XYZ sounding format
EX1203_EX03192012_2012-128_0031_20120507_165403_EX1203_MB.txt.mb162 3.55MB Generic XYZ sounding format
EX1203_EX03192012_2012-128_0032_20120507_173942_EX1203_MB.txt.mb162 3.84MB Generic XYZ sounding format
EX1203_EX03192012_2012-128_0033_20120507_183154_EX1203_MB.txt.mb162 6.20MB Generic XYZ sounding format
EX1203_EX03192012_2012-128_0034_20120507_195645_EX1203_MB.txt.mb162 0.52MB Generic XYZ sounding format
EX1203_EX03192012_2012-128_0035_20120507_200456_EX1203_MB.txt.mb162 9.54MB Generic XYZ sounding format
EX1203_EX03192012_2012-128_0036_20120507_220455_EX1203_MB.txt.mb162 1.26MB Generic XYZ sounding format
EX1203_EX03192012_2012-128_0037_20120507_221526_EX1203_MB.txt.mb162 1.00MB Generic XYZ sounding format
EX1203_EX03192012_2012-128_0038_20120507_222350_EX1203_MB.txt.mb162 8.76MB Generic XYZ sounding format
EX1203_EX03192012_2012-129_0039_20120508_000228_EX1203_MB.txt.mb162 2.05MB Generic XYZ sounding format
EX1203_EX03192012_2012-129_0040_20120508_003423_EX1203_MB.txt.mb162 0.53MB Generic XYZ sounding format
EX1203_EX03192012_2012-129_0041_20120508_004233_EX1203_MB.txt.mb162 8.81MB Generic XYZ sounding format
EX1203_EX03192012_2012-129_0042_20120508_024230_EX1203_MB.txt.mb162 1.39MB Generic XYZ sounding format
EX1203_EX03192012_2012-129_0043_20120508_025458_EX1203_MB.txt.mb162 1.12MB Generic XYZ sounding format
EX1203_EX03192012_2012-129_0044_20120508_030513_EX1203_MB.txt.mb162 9.03MB Generic XYZ sounding format
EX1203_EX03192012_2012-129_0045_20120508_050426_EX1203_MB.txt.mb162 0.76MB Generic XYZ sounding format
EX1203_EX03192012_2012-129_0046_20120508_051617_EX1203_MB.txt.mb162 7.47MB Generic XYZ sounding format
EX1203_EX03192012_2012-129_0047_20120508_070941_EX1203_MB.txt.mb162 0.79MB Generic XYZ sounding format
EX1203_EX03192012_2012-129_0048_20120508_071805_EX1203_MB.txt.mb162 6.28MB Generic XYZ sounding format
EX1203_EX03192012_2012-129_0049_20120508_085149_EX1203_MB.txt.mb162 456.5KB Generic XYZ sounding format
EX1203_EX03192012_2012-129_0050_20120508_090059_EX1203_MB.txt.mb162 14.2KB Generic XYZ sounding format
EX1203_EX03192012_2012-129_0051_20120508_090115_EX1203_MB.txt.mb162 5.37MB Generic XYZ sounding format
EX1203_EX03192012_2012-129_0052_20120508_102742_EX1203_MB.txt.mb162 0.69MB Generic XYZ sounding format
EX1203_EX03192012_2012-129_0053_20120508_103733_EX1203_MB.txt.mb162 2.34MB Generic XYZ sounding format
EX1203_EX03192012_2012-129_0054_20120508_111410_EX1203_MB.txt.mb162 0.64MB Generic XYZ sounding format
EX1203_EX03192012_2012-129_0055_20120508_112335_EX1203_MB.txt.mb162 1.00MB Generic XYZ sounding format
EX1203_EX03192012_2012-129_0055_20120508_124327_EX1203_MB.txt.mb162 3.10MB Generic XYZ sounding format
EX1203_EX03192012_2012-129_0056_20120508_131638_EX1203_MB.txt.mb162 1.29MB Generic XYZ sounding format
EX1203_EX03192012_2012-129_0057_20120508_133050_EX1203_MB.txt.mb162 5.28MB Generic XYZ sounding format
EX1203_EX03192012_2012-129_0058_20120508_142727_EX1203_MB.txt.mb162 2.30MB Generic XYZ sounding format
EX1203_EX03192012_2012-129_0059_20120508_144335_EX1203_MB.txt.mb162 1.78MB Generic XYZ sounding format
EX1203_EX03192012_2012-129_0060_20120508_145721_EX1203_MB.txt.mb162 3.74MB Generic XYZ sounding format
EX1203_EX03192012_2012-129_0061_20120508_152626_EX1203_MB.txt.mb162 23.97MB Generic XYZ sounding format
EX1203_EX03192012_2012-129_0062_20120508_172626_EX1203_MB.txt.mb162 1.98MB Generic XYZ sounding format
EX1203_EX03192012_2012-129_0063_20120508_173302_EX1203_MB.txt.mb162 3.05MB Generic XYZ sounding format
EX1203_EX03192012_2012-129_0064_20120508_174405_EX1203_MB.txt.mb162 19.27MB Generic XYZ sounding format
EX1203_EX03192012_2012-129_0065_20120508_192651_EX1203_MB.txt.mb162 1.06MB Generic XYZ sounding format
EX1203_EX03192012_2012-129_0066_20120508_193421_EX1203_MB.txt.mb162 2.54MB Generic XYZ sounding format
EX1203_EX03192012_2012-129_0067_20120508_195228_EX1203_MB.txt.mb162 7.26MB Generic XYZ sounding format
EX1203_EX03192012_2012-129_0068_20120508_212026_EX1203_MB.txt.mb162 23.70MB Generic XYZ sounding format
EX1203_EX03192012_2012-129_0069_20120508_232026_EX1203_MB.txt.mb162 8.06MB Generic XYZ sounding format
EX1203_EX03192012_2012-130_0070_20120509_000001_EX1203_MB.txt.mb162 18.59MB Generic XYZ sounding format
EX1203_EX03192012_2012-130_0071_20120509_020001_EX1203_MB.txt.mb162 13.08MB Generic XYZ sounding format
EX1203_EX03192012_2012-130_0072_20120509_040001_EX1203_MB.txt.mb162 9.34MB Generic XYZ sounding format
EX1203_EX03192012_2012-130_0073_20120509_053603_EX1203_MB.txt.mb162 7.87MB Generic XYZ sounding format
EX1203_EX03192012_2012-130_0074_20120509_073603_EX1203_MB.txt.mb162 5.86MB Generic XYZ sounding format
EX1203_EX03192012_2012-130_0075_20120509_091327_EX1203_MB.txt.mb162 0.57MB Generic XYZ sounding format
EX1203_EX03192012_2012-130_0076_20120509_092048_EX1203_MB.txt.mb162 7.27MB Generic XYZ sounding format
EX1203_EX03192012_2012-130_0077_20120509_112048_EX1203_MB.txt.mb162 6.56MB Generic XYZ sounding format
EX1203_EX03192012_2012-130_0078_20120509_125945_EX1203_MB.txt.mb162 0.56MB Generic XYZ sounding format
EX1203_EX03192012_2012-130_0079_20120509_130817_EX1203_MB.txt.mb162 7.58MB Generic XYZ sounding format
EX1203_EX03192012_2012-130_0080_20120509_150819_EX1203_MB.txt.mb162 5.63MB Generic XYZ sounding format
EX1203_EX03192012_2012-130_0081_20120509_164237_EX1203_MB.txt.mb162 450.7KB Generic XYZ sounding format
EX1203_EX03192012_2012-130_0082_20120509_164844_EX1203_MB.txt.mb162 8.29MB Generic XYZ sounding format
EX1203_EX03192012_2012-130_0083_20120509_184844_EX1203_MB.txt.mb162 7.85MB Generic XYZ sounding format
EX1203_EX03192012_2012-130_0084_20120509_203147_EX1203_MB.txt.mb162 0.98MB Generic XYZ sounding format
EX1203_EX03192012_2012-130_0085_20120509_204441_EX1203_MB.txt.mb162 8.60MB Generic XYZ sounding format
EX1203_EX03192012_2012-130_0086_20120509_224444_EX1203_MB.txt.mb162 4.89MB Generic XYZ sounding format
EX1203_EX03192012_2012-131_0087_20120510_000201_EX1203_MB.txt.mb162 1.51MB Generic XYZ sounding format
EX1203_EX03192012_2012-131_0088_20120510_002150_EX1203_MB.txt.mb162 0.93MB Generic XYZ sounding format
EX1203_EX03192012_2012-131_0089_20120510_003400_EX1203_MB.txt.mb162 7.40MB Generic XYZ sounding format
EX1203_EX03192012_2012-131_0090_20120510_023359_EX1203_MB.txt.mb162 7.08MB Generic XYZ sounding format
EX1203_EX03192012_2012-131_0091_20120510_041119_EX1203_MB.txt.mb162 1.24MB Generic XYZ sounding format
EX1203_EX03192012_2012-131_0092_20120510_042803_EX1203_MB.txt.mb162 8.45MB Generic XYZ sounding format
EX1203_EX03192012_2012-131_0093_20120510_062803_EX1203_MB.txt.mb162 6.10MB Generic XYZ sounding format
EX1203_EX03192012_2012-131_0094_20120510_080945_EX1203_MB.txt.mb162 0.89MB Generic XYZ sounding format
EX1203_EX03192012_2012-131_0095_20120510_082150_EX1203_MB.txt.mb162 7.02MB Generic XYZ sounding format
EX1203_EX03192012_2012-131_0096_20120510_102153_EX1203_MB.txt.mb162 6.74MB Generic XYZ sounding format
EX1203_EX03192012_2012-131_0097_20120510_115520_EX1203_MB.txt.mb162 0.99MB Generic XYZ sounding format
EX1203_EX03192012_2012-131_0098_20120510_120905_EX1203_MB.txt.mb162 8.20MB Generic XYZ sounding format
EX1203_EX03192012_2012-131_0099_20120510_140903_EX1203_MB.txt.mb162 6.23MB Generic XYZ sounding format
EX1203_EX03192012_2012-131_0100_20120510_155730_EX1203_MB.txt.mb162 0.92MB Generic XYZ sounding format
EX1203_EX03192012_2012-131_0101_20120510_161055_EX1203_MB.txt.mb162 6.72MB Generic XYZ sounding format
EX1203_EX03192012_2012-131_0102_20120510_181056_EX1203_MB.txt.mb162 7.55MB Generic XYZ sounding format
EX1203_EX03192012_2012-131_0103_20120510_200917_EX1203_MB.txt.mb162 0.80MB Generic XYZ sounding format
EX1203_EX03192012_2012-131_0104_20120510_202234_EX1203_MB.txt.mb162 7.09MB Generic XYZ sounding format
EX1203_EX03192012_2012-131_0105_20120510_222234_EX1203_MB.txt.mb162 4.74MB Generic XYZ sounding format
EX1203_EX03192012_2012-131_0106_20120510_234813_EX1203_MB.txt.mb162 0.70MB Generic XYZ sounding format
EX1203_EX03192012_2012-132_0107_20120511_000004_EX1203_MB.txt.mb162 6.38MB Generic XYZ sounding format
EX1203_EX03192012_2012-132_0108_20120511_020004_EX1203_MB.txt.mb162 1.08MB Generic XYZ sounding format
EX1203_EX03192012_2012-132_0109_20120511_022253_EX1203_MB.txt.mb162 1.21MB Generic XYZ sounding format
EX1203_EX03192012_2012-132_0110_20120511_024641_EX1203_MB.txt.mb162 4.35MB Generic XYZ sounding format
EX1203_EX03192012_2012-132_0111_20120511_041055_EX1203_MB.txt.mb162 0.62MB Generic XYZ sounding format
EX1203_EX03192012_2012-132_0112_20120511_042330_EX1203_MB.txt.mb162 3.58MB Generic XYZ sounding format
EX1203_EX03192012_2012-132_0113_20120511_052938_EX1203_MB.txt.mb162 0.63MB Generic XYZ sounding format
EX1203_EX03192012_2012-132_0114_20120511_054209_EX1203_MB.txt.mb162 4.17MB Generic XYZ sounding format
EX1203_EX03192012_2012-132_0115_20120511_065123_EX1203_MB.txt.mb162 1.72MB Generic XYZ sounding format
EX1203_EX03192012_2012-132_0116_20120511_072544_EX1203_MB.txt.mb162 5.70MB Generic XYZ sounding format
EX1203_EX03192012_2012-132_0117_20120511_092211_EX1203_MB.txt.mb162 1.18MB Generic XYZ sounding format
EX1203_EX03192012_2012-132_0118_20120511_095017_EX1203_MB.txt.mb162 4.75MB Generic XYZ sounding format
EX1203_EX03192012_2012-132_0119_20120511_113116_EX1203_MB.txt.mb162 4.46MB Generic XYZ sounding format
EX1203_EX03192012_2012-132_0120_20120511_130450_EX1203_MB.txt.mb162 5.07MB Generic XYZ sounding format
EX1203_EX03192012_2012-132_0121_20120511_150456_EX1203_MB.txt.mb162 4.12MB Generic XYZ sounding format
EX1203_EX03192012_2012-132_0122_20120511_170450_EX1203_MB.txt.mb162 4.04MB Generic XYZ sounding format
EX1203_EX03192012_2012-132_0123_20120511_190451_EX1203_MB.txt.mb162 3.86MB Generic XYZ sounding format
EX1203_EX03192012_2012-132_0124_20120511_210449_EX1203_MB.txt.mb162 3.66MB Generic XYZ sounding format
EX1203_EX03192012_2012-132_0125_20120511_230458_EX1203_MB.txt.mb162 0.78MB Generic XYZ sounding format
EX1203_EX03192012_2012-132_0126_20120511_233107_EX1203_MB.txt.mb162 144.4KB Generic XYZ sounding format
EX1203_EX03192012_2012-132_0127_20120511_233548_EX1203_MB.txt.mb162 0.72MB Generic XYZ sounding format
EX1203_EX03192012_2012-133_0128_20120512_000005_EX1203_MB.txt.mb162 3.41MB Generic XYZ sounding format
EX1203_EX03192012_2012-133_0129_20120512_020005_EX1203_MB.txt.mb162 2.15MB Generic XYZ sounding format
EX1203_EX03192012_2012-133_0130_20120512_033526_EX1203_MB.txt.mb162 70.4KB Generic XYZ sounding format
EX1203_EX03192012_2012-133_0131_20120512_033838_EX1203_MB.txt.mb162 1.13MB Generic XYZ sounding format
EX1203_EX03192012_2012-133_0132_20120512_043032_EX1203_MB.txt.mb162 101.7KB Generic XYZ sounding format
EX1203_EX03192012_2012-133_0133_20120512_043508_EX1203_MB.txt.mb162 2.61MB Generic XYZ sounding format
EX1203_EX03192012_2012-133_0134_20120512_063500_EX1203_MB.txt.mb162 0.76MB Generic XYZ sounding format
EX1203_EX03192012_2012-133_0135_20120512_071053_EX1203_MB.txt.mb162 1.78MB Generic XYZ sounding format
EX1203_EX03192012_2012-133_0136_20120512_081434_EX1203_MB.txt.mb162 152.4KB Generic XYZ sounding format
EX1203_EX03192012_2012-133_0137_20120512_081828_EX1203_MB.txt.mb162 4.15MB Generic XYZ sounding format
EX1203_EX03192012_2012-133_0138_20120512_101829_EX1203_MB.txt.mb162 3.89MB Generic XYZ sounding format
EX1203_EX03192012_2012-133_0139_20120512_121830_EX1203_MB.txt.mb162 3.49MB Generic XYZ sounding format
EX1203_EX03192012_2012-133_0142_20120512_135923_EX1203_MB.txt.mb162 5.65MB Generic XYZ sounding format
EX1203_EX03192012_2012-133_0143_20120512_155919_EX1203_MB.txt.mb162 5.98MB Generic XYZ sounding format
EX1203_EX03192012_2012-133_0144_20120512_175918_EX1203_MB.txt.mb162 9.11MB Generic XYZ sounding format
EX1203_EX03192012_2012-133_0145_20120512_195917_EX1203_MB.txt.mb162 15.51MB Generic XYZ sounding format
EX1203_EX03192012_2012-133_0146_20120512_215918_EX1203_MB.txt.mb162 13.34MB Generic XYZ sounding format
EX1203_EX03192012_2012-133_0147_20120512_235501_EX1203_MB.txt.mb162 0.54MB Generic XYZ sounding format
EX1203_EX03192012_2012-134_0148_20120513_000001_EX1203_MB.txt.mb162 3.83MB Generic XYZ sounding format
EX1203_EX03192012_2012-134_0149_20120513_003807_EX1203_MB.txt.mb162 1.05MB Generic XYZ sounding format
EX1203_EX03192012_2012-134_0150_20120513_005027_EX1203_MB.txt.mb162 5.48MB Generic XYZ sounding format
EX1203_EX03192012_2012-134_0151_20120513_015621_EX1203_MB.txt.mb162 269.6KB Generic XYZ sounding format
EX1203_EX03192012_2012-134_0152_20120513_015930_EX1203_MB.txt.mb162 10.27MB Generic XYZ sounding format
EX1203_EX03192012_2012-134_0153_20120513_035932_EX1203_MB.txt.mb162 158.8KB Generic XYZ sounding format
EX1203_EX03192012_2012-134_0154_20120513_040124_EX1203_MB.txt.mb162 0.92MB Generic XYZ sounding format
EX1203_EX03192012_2012-134_0155_20120513_041057_EX1203_MB.txt.mb162 12.19MB Generic XYZ sounding format
EX1203_EX03192012_2012-134_0156_20120513_060812_EX1203_MB.txt.mb162 1.11MB Generic XYZ sounding format
EX1203_EX03192012_2012-134_0157_20120513_061923_EX1203_MB.txt.mb162 13.02MB Generic XYZ sounding format
EX1203_EX03192012_2012-134_0158_20120513_081924_EX1203_MB.txt.mb162 1.32MB Generic XYZ sounding format
EX1203_EX03192012_2012-134_0159_20120513_083302_EX1203_MB.txt.mb162 8.97MB Generic XYZ sounding format
EX1203_EX03192012_2012-134_0160_20120513_095535_EX1203_MB.txt.mb162 13.89MB Generic XYZ sounding format
EX1203_EX03192012_2012-134_0161_20120513_115534_EX1203_MB.txt.mb162 13.22MB Generic XYZ sounding format
EX1203_EX03192012_2012-134_0162_20120513_135534_EX1203_MB.txt.mb162 17.62MB Generic XYZ sounding format
EX1203_EX03192012_2012-134_0163_20120513_155533_EX1203_MB.txt.mb162 49.91MB Generic XYZ sounding format
EX1203_EX03192012_2012-134_0164_20120513_175400_EX1203_MB.txt.mb162 21.07MB Generic XYZ sounding format
EX1203_EX03192012_2012-134_0165_20120513_195402_EX1203_MB.txt.mb162 4.17MB Generic XYZ sounding format
EX1203_EX03192012_2012-134_0166_20120513_204654_EX1203_MB.txt.mb162 9.86MB Generic XYZ sounding format
EX1203_EX03192012_2012-134_0167_20120513_224653_EX1203_MB.txt.mb162 3.70MB Generic XYZ sounding format
EX1203_EX03192012_2012-134_0168_20120513_232415_EX1203_MB.txt.mb162 3.27MB Generic XYZ sounding format
EX1203_EX03192012_2012-135_0169_20120514_000003_EX1203_MB.txt.mb162 9.18MB Generic XYZ sounding format
EX1203_EX03192012_2012-135_0170_20120514_020002_EX1203_MB.txt.mb162 8.66MB Generic XYZ sounding format
EX1203_EX03192012_2012-135_0171_20120514_040002_EX1203_MB.txt.mb162 4.24MB Generic XYZ sounding format
EX1203_EX03192012_2012-135_0172_20120514_045819_EX1203_MB.txt.mb162 9.76MB Generic XYZ sounding format
EX1203_EX03192012_2012-135_0173_20120514_065817_EX1203_MB.txt.mb162 19.77MB Generic XYZ sounding format
EX1203_EX03192012_2012-135_0174_20120514_085818_EX1203_MB.txt.mb162 24.08MB Generic XYZ sounding format
EX1203_EX03192012_2012-135_0175_20120514_105818_EX1203_MB.txt.mb162 22.66MB Generic XYZ sounding format
EX1203_EX03192012_2012-135_0176_20120514_125818_EX1203_MB.txt.mb162 13.06MB Generic XYZ sounding format
EX1203_EX03192012_2012-135_0177_20120514_145819_EX1203_MB.txt.mb162 1.59MB Generic XYZ sounding format
EX1203_EX03192012_2012-135_0178_20120514_151749_EX1203_MB.txt.mb162 18.54MB Generic XYZ sounding format
EX1203_EX03192012_2012-135_0179_20120514_224136_EX1203_MB.txt.mb162 9.39MB Generic XYZ sounding format
EX1203_EX03192012_2012-136_0180_20120515_000001_EX1203_MB.txt.mb162 9.06MB Generic XYZ sounding format
EX1203_EX03192012_2012-136_0181_20120515_020002_EX1203_MB.txt.mb162 15.02MB Generic XYZ sounding format
EX1203_EX03192012_2012-136_0182_20120515_040001_EX1203_MB.txt.mb162 13.57MB Generic XYZ sounding format
EX1203_EX03192012_2012-136_0183_20120515_060002_EX1203_MB.txt.mb162 13.90MB Generic XYZ sounding format
EX1203_EX03192012_2012-136_0184_20120515_080000_EX1203_MB.txt.mb162 15.24MB Generic XYZ sounding format
EX1203_EX03192012_2012-136_0185_20120515_100000_EX1203_MB.txt.mb162 8.11MB Generic XYZ sounding format
EX1203_EX03192012_2012-136_0186_20120515_105430_EX1203_MB.txt.mb162 14.38MB Generic XYZ sounding format
EX1203_EX03192012_2012-136_0187_20120515_125429_EX1203_MB.txt.mb162 10.48MB Generic XYZ sounding format
EX1203_EX03192012_2012-136_0188_20120515_145430_EX1203_MB.txt.mb162 11.41MB Generic XYZ sounding format
EX1203_EX03192012_2012-136_0189_20120515_165429_EX1203_MB.txt.mb162 11.63MB Generic XYZ sounding format
EX1203_EX03192012_2012-136_0191_20120515_192450_EX1203_MB.txt.mb162 7.72MB Generic XYZ sounding format
EX1203_EX03192012_2012-136_0192_20120515_204342_EX1203_MB.txt.mb162 11.38MB Generic XYZ sounding format
EX1203_EX03192012_2012-136_0193_20120515_224344_EX1203_MB.txt.mb162 7.85MB Generic XYZ sounding format
EX1203_EX03192012_2012-137_0000_20120516_225320_EX1203_MB.txt.mb162 29.5KB Generic XYZ sounding format
EX1203_EX03192012_2012-137_0194_20120516_000045_EX1203_MB.txt.mb162 11.83MB Generic XYZ sounding format
EX1203_EX03192012_2012-137_0195_20120516_020044_EX1203_MB.txt.mb162 11.39MB Generic XYZ sounding format
EX1203_EX03192012_2012-137_0196_20120516_040045_EX1203_MB.txt.mb162 2.97MB Generic XYZ sounding format
EX1203_EX03192012_2012-137_0197_20120516_042756_EX1203_MB.txt.mb162 0.62MB Generic XYZ sounding format
EX1203_EX03192012_2012-137_0198_20120516_043326_EX1203_MB.txt.mb162 6.20MB Generic XYZ sounding format
EX1203_EX03192012_2012-137_0199_20120516_054535_EX1203_MB.txt.mb162 1.02MB Generic XYZ sounding format
EX1203_EX03192012_2012-137_0200_20120516_055935_EX1203_MB.txt.mb162 7.08MB Generic XYZ sounding format
EX1203_EX03192012_2012-137_0201_20120516_072144_EX1203_MB.txt.mb162 1.55MB Generic XYZ sounding format
EX1203_EX03192012_2012-137_0202_20120516_073524_EX1203_MB.txt.mb162 5.93MB Generic XYZ sounding format
EX1203_EX03192012_2012-137_0203_20120516_084411_EX1203_MB.txt.mb162 1.05MB Generic XYZ sounding format
EX1203_EX03192012_2012-137_0204_20120516_085835_EX1203_MB.txt.mb162 7.22MB Generic XYZ sounding format
EX1203_EX03192012_2012-137_0205_20120516_102210_EX1203_MB.txt.mb162 1.51MB Generic XYZ sounding format
EX1203_EX03192012_2012-137_0206_20120516_103601_EX1203_MB.txt.mb162 5.82MB Generic XYZ sounding format
EX1203_EX03192012_2012-137_0207_20120516_114320_EX1203_MB.txt.mb162 0.56MB Generic XYZ sounding format
EX1203_EX03192012_2012-137_0208_20120516_115334_EX1203_MB.txt.mb162 5.50MB Generic XYZ sounding format
EX1203_EX03192012_2012-137_0209_20120516_131312_EX1203_MB.txt.mb162 1.44MB Generic XYZ sounding format
EX1203_EX03192012_2012-137_0210_20120516_133000_EX1203_MB.txt.mb162 5.19MB Generic XYZ sounding format
EX1203_EX03192012_2012-137_0211_20120516_143942_EX1203_MB.txt.mb162 0.63MB Generic XYZ sounding format
EX1203_EX03192012_2012-137_0212_20120516_145058_EX1203_MB.txt.mb162 5.91MB Generic XYZ sounding format
EX1203_EX03192012_2012-137_0213_20120516_160816_EX1203_MB.txt.mb162 1.08MB Generic XYZ sounding format
EX1203_EX03192012_2012-137_0214_20120516_162143_EX1203_MB.txt.mb162 6.19MB Generic XYZ sounding format
EX1203_EX03192012_2012-137_0215_20120516_180557_EX1203_MB.txt.mb162 8.15MB Generic XYZ sounding format
EX1203_EX03192012_2012-137_0216_20120516_200558_EX1203_MB.txt.mb162 2.05MB Generic XYZ sounding format
EX1203_EX03192012_2012-137_0217_20120516_203555_EX1203_MB.txt.mb162 0.96MB Generic XYZ sounding format
EX1203_EX03192012_2012-137_0218_20120516_205019_EX1203_MB.txt.mb162 7.90MB Generic XYZ sounding format
EX1203_EX03192012_2012-137_0219_20120516_225020_EX1203_MB.txt.mb162 196.7KB Generic XYZ sounding format
EX1203_EX03192012_2012-137_0219_20120516_230323_EX1203_MB.txt.mb162 2.75MB Generic XYZ sounding format
EX1203_EX03192012_2012-137_0220_20120516_234530_EX1203_MB.txt.mb162 0.94MB Generic XYZ sounding format
EX1203_EX03192012_2012-138_0221_20120517_000003_EX1203_MB.txt.mb162 7.85MB Generic XYZ sounding format
EX1203_EX03192012_2012-138_0222_20120517_020003_EX1203_MB.txt.mb162 8.40MB Generic XYZ sounding format
EX1203_EX03192012_2012-138_0223_20120517_040001_EX1203_MB.txt.mb162 2.38MB Generic XYZ sounding format
EX1203_EX03192012_2012-138_0224_20120517_042716_EX1203_MB.txt.mb162 1.80MB Generic XYZ sounding format
EX1203_EX03192012_2012-138_0225_20120517_044630_EX1203_MB.txt.mb162 9.71MB Generic XYZ sounding format
EX1203_EX03192012_2012-138_0226_20120517_064632_EX1203_MB.txt.mb162 7.70MB Generic XYZ sounding format
EX1203_EX03192012_2012-138_0227_20120517_084632_EX1203_MB.txt.mb162 1.05MB Generic XYZ sounding format
EX1203_EX03192012_2012-138_0228_20120517_090334_EX1203_MB.txt.mb162 0.56MB Generic XYZ sounding format
EX1203_EX03192012_2012-138_0229_20120517_091233_EX1203_MB.txt.mb162 7.68MB Generic XYZ sounding format
EX1203_EX03192012_2012-138_0230_20120517_111234_EX1203_MB.txt.mb162 7.68MB Generic XYZ sounding format
EX1203_EX03192012_2012-138_0231_20120517_124823_EX1203_MB.txt.mb162 1.47MB Generic XYZ sounding format
EX1203_EX03192012_2012-138_0232_20120517_130352_EX1203_MB.txt.mb162 9.84MB Generic XYZ sounding format
EX1203_EX03192012_2012-138_0233_20120517_150353_EX1203_MB.txt.mb162 5.55MB Generic XYZ sounding format
EX1203_EX03192012_2012-138_0234_20120517_162748_EX1203_MB.txt.mb162 0.62MB Generic XYZ sounding format
EX1203_EX03192012_2012-138_0235_20120517_163655_EX1203_MB.txt.mb162 6.49MB Generic XYZ sounding format
EX1203_EX03192012_2012-138_0236_20120517_192555_EX1203_MB.txt.mb162 3.23MB Generic XYZ sounding format
EX1203_EX03192012_2012-138_0237_20120517_200945_EX1203_MB.txt.mb162 6.07MB Generic XYZ sounding format
EX1203_EX03192012_2012-138_0238_20120517_211927_EX1203_MB.txt.mb162 1.09MB Generic XYZ sounding format
EX1203_EX03192012_2012-138_0239_20120517_213100_EX1203_MB.txt.mb162 10.10MB Generic XYZ sounding format
EX1203_EX03192012_2012-138_0240_20120517_233059_EX1203_MB.txt.mb162 2.07MB Generic XYZ sounding format
EX1203_EX03192012_2012-139_0241_20120518_000003_EX1203_MB.txt.mb162 1.56MB Generic XYZ sounding format
EX1203_EX03192012_2012-139_0242_20120518_002142_EX1203_MB.txt.mb162 0.87MB Generic XYZ sounding format
EX1203_EX03192012_2012-139_0243_20120518_003331_EX1203_MB.txt.mb162 9.80MB Generic XYZ sounding format
EX1203_EX03192012_2012-139_0244_20120518_023332_EX1203_MB.txt.mb162 84.1KB Generic XYZ sounding format
EX1203_EX03192012_2012-139_0245_20120518_023423_EX1203_MB.txt.mb162 0.73MB Generic XYZ sounding format
EX1203_EX03192012_2012-139_0246_20120518_024200_EX1203_MB.txt.mb162 10.51MB Generic XYZ sounding format
EX1203_EX03192012_2012-139_0247_20120518_044202_EX1203_MB.txt.mb162 4.73MB Generic XYZ sounding format
EX1203_EX03192012_2012-139_0248_20120518_053942_EX1203_MB.txt.mb162 1.00MB Generic XYZ sounding format
EX1203_EX03192012_2012-139_0249_20120518_055128_EX1203_MB.txt.mb162 10.30MB Generic XYZ sounding format
EX1203_EX03192012_2012-139_0250_20120518_075128_EX1203_MB.txt.mb162 0.74MB Generic XYZ sounding format
EX1203_EX03192012_2012-139_0251_20120518_075928_EX1203_MB.txt.mb162 1.10MB Generic XYZ sounding format
EX1203_EX03192012_2012-139_0252_20120518_081111_EX1203_MB.txt.mb162 10.85MB Generic XYZ sounding format
EX1203_EX03192012_2012-139_0253_20120518_101110_EX1203_MB.txt.mb162 2.50MB Generic XYZ sounding format
EX1203_EX03192012_2012-139_0254_20120518_103953_EX1203_MB.txt.mb162 1.00MB Generic XYZ sounding format
EX1203_EX03192012_2012-139_0255_20120518_105101_EX1203_MB.txt.mb162 9.84MB Generic XYZ sounding format
EX1203_EX03192012_2012-139_0256_20120518_123941_EX1203_MB.txt.mb162 5.91MB Generic XYZ sounding format
EX1203_EX03192012_2012-139_0257_20120518_134113_EX1203_MB.txt.mb162 4.27MB Generic XYZ sounding format
EX1203_EX03192012_2012-139_0258_20120518_142808_EX1203_MB.txt.mb162 1.84MB Generic XYZ sounding format
EX1203_EX03192012_2012-139_0259_20120518_144916_EX1203_MB.txt.mb162 2.68MB Generic XYZ sounding format
EX1203_EX03192012_2012-139_0260_20120518_151833_EX1203_MB.txt.mb162 13.12MB Generic XYZ sounding format
EX1203_EX03192012_2012-139_0261_20120518_171832_EX1203_MB.txt.mb162 4.25MB Generic XYZ sounding format
EX1203_EX03192012_2012-139_0262_20120518_175646_EX1203_MB.txt.mb162 11.93MB Generic XYZ sounding format
EX1203_EX03192012_2012-139_0263_20120518_195647_EX1203_MB.txt.mb162 13.23MB Generic XYZ sounding format
EX1203_EX03192012_2012-139_0264_20120518_215645_EX1203_MB.txt.mb162 7.72MB Generic XYZ sounding format
EX1203_EX03192012_2012-139_0265_20120518_230014_EX1203_MB.txt.mb162 6.71MB Generic XYZ sounding format
EX1203_EX03192012_2012-140_0266_20120519_000010_EX1203_MB.txt.mb162 13.79MB Generic XYZ sounding format
EX1203_EX03192012_2012-140_0267_20120519_020009_EX1203_MB.txt.mb162 3.26MB Generic XYZ sounding format
EX1203_EX03192012_2012-140_0268_20120519_022737_EX1203_MB.txt.mb162 1.51MB Generic XYZ sounding format
EX1203_EX03192012_2012-140_0269_20120519_024116_EX1203_MB.txt.mb162 5.78MB Generic XYZ sounding format
EX1203_EX03192012_2012-140_0270_20120519_044116_EX1203_MB.txt.mb162 5.89MB Generic XYZ sounding format
EX1203_EX03192012_2012-140_0271_20120519_064115_EX1203_MB.txt.mb162 2.03MB Generic XYZ sounding format
EX1203_EX03192012_2012-140_0272_20120519_071919_EX1203_MB.txt.mb162 0.83MB Generic XYZ sounding format
EX1203_EX03192012_2012-140_0273_20120519_073530_EX1203_MB.txt.mb162 6.97MB Generic XYZ sounding format
EX1203_EX03192012_2012-140_0274_20120519_093532_EX1203_MB.txt.mb162 7.54MB Generic XYZ sounding format
EX1203_EX03192012_2012-140_0275_20120519_113530_EX1203_MB.txt.mb162 3.98MB Generic XYZ sounding format
EX1203_EX03192012_2012-140_0276_20120519_124419_EX1203_MB.txt.mb162 0.71MB Generic XYZ sounding format
EX1203_EX03192012_2012-140_0277_20120519_125629_EX1203_MB.txt.mb162 1.32MB Generic XYZ sounding format
EX1203_EX03192012_2012-140_0278_20120519_132143_EX1203_MB.txt.mb162 5.37MB Generic XYZ sounding format
EX1203_EX03192012_2012-140_0279_20120519_152143_EX1203_MB.txt.mb162 7.63MB Generic XYZ sounding format
EX1203_EX03192012_2012-140_0280_20120519_170642_EX1203_MB.txt.mb162 1.49MB Generic XYZ sounding format
EX1203_EX03192012_2012-140_0281_20120519_172619_EX1203_MB.txt.mb162 8.84MB Generic XYZ sounding format
EX1203_EX03192012_2012-140_0282_20120519_192557_EX1203_MB.txt.mb162 12.15MB Generic XYZ sounding format
EX1203_EX03192012_2012-140_0283_20120519_212557_EX1203_MB.txt.mb162 13.92MB Generic XYZ sounding format
EX1203_EX03192012_2012-140_0284_20120519_232557_EX1203_MB.txt.mb162 3.94MB Generic XYZ sounding format
EX1203_EX03192012_2012-141_0285_20120520_000004_EX1203_MB.txt.mb162 11.94MB Generic XYZ sounding format
EX1203_EX03192012_2012-141_0286_20120520_020004_EX1203_MB.txt.mb162 19.12MB Generic XYZ sounding format
EX1203_EX03192012_2012-141_0287_20120520_040003_EX1203_MB.txt.mb162 26.10MB Generic XYZ sounding format
EX1203_EX03192012_2012-142_0288_20120521_210313_EX1203_MB.txt.mb162 59.40MB Generic XYZ sounding format
EX1203_EX03192012_2012-142_0289_20120521_222816_EX1203_MB.txt.mb162 17.55MB Generic XYZ sounding format
EX1203_EX03192012_2012-143_0290_20120522_000032_EX1203_MB.txt.mb162 9.92MB Generic XYZ sounding format
EX1203_EX03192012_2012-143_0291_20120522_020030_EX1203_MB.txt.mb162 9.80MB Generic XYZ sounding format
EX1203_EX03192012_2012-143_0292_20120522_040030_EX1203_MB.txt.mb162 13.97MB Generic XYZ sounding format
EX1203_EX03192012_2012-143_0293_20120522_060030_EX1203_MB.txt.mb162 13.00MB Generic XYZ sounding format
EX1203_EX03192012_2012-143_0294_20120522_080031_EX1203_MB.txt.mb162 15.29MB Generic XYZ sounding format
EX1203_EX03192012_2012-143_0295_20120522_100030_EX1203_MB.txt.mb162 17.75MB Generic XYZ sounding format
EX1203_EX03192012_2012-143_0296_20120522_120030_EX1203_MB.txt.mb162 20.07MB Generic XYZ sounding format
EX1203_EX03192012_2012-143_0297_20120522_140030_EX1203_MB.txt.mb162 20.85MB Generic XYZ sounding format
EX1203_EX03192012_2012-143_0298_20120522_160030_EX1203_MB.txt.mb162 20.03MB Generic XYZ sounding format
EX1203_EX03192012_2012-143_0299_20120522_180029_EX1203_MB.txt.mb162 12.03MB Generic XYZ sounding format
EX1203_EX03192012_2012-143_0300_20120522_193442_EX1203_MB.txt.mb162 13.43MB Generic XYZ sounding format
EX1203_EX03192012_2012-143_0301_20120522_213441_EX1203_MB.txt.mb162 11.32MB Generic XYZ sounding format
EX1203_EX03192012_2012-143_0302_20120522_233441_EX1203_MB.txt.mb162 1.38MB Generic XYZ sounding format
EX1203_EX03192012_2012-144_0303_20120523_000008_EX1203_MB.txt.mb162 4.49MB Generic XYZ sounding format
EX1203_EX03192012_2012-144_0304_20120523_020011_EX1203_MB.txt.mb162 3.01MB Generic XYZ sounding format
EX1203_EX03192012_2012-144_0305_20120523_032606_EX1203_MB.txt.mb162 4.38MB Generic XYZ sounding format
EX1203_EX03192012_2012-144_0306_20120523_052601_EX1203_MB.txt.mb162 25.33MB Generic XYZ sounding format

Products: 16

Metadata Files: 12

Files File Size Description
EX1203_Multibeam.xml NCEI created ISO metadata
EX1203_Mapping_Data_Report.pdf 1.87MB PDF metadata file
EX1203_COLLECTION_UNRESOLVED.xml 15.7KB XML metadata file
EX1203_Multibeam_COLLECTION_UNRESOLVED.xml 20.6KB XML metadata file
EX1203_Multibeam_Collection.xml 15.3KB XML metadata file
EX1203_Profile_COLLECTION_UNRESOLVED.xml 15.8KB XML metadata file
EX1203_ShipTrack_KML_UNRESOLVED.xml 17.2KB XML metadata file
EX1203_Singlebeam_COLLECTION_UNRESOLVED.xml 16.3KB XML metadata file
EX1203_SubbottomProfiler_COLLECTION_UNRESOLVED.xml 16.4KB XML metadata file
EX1203_WaterColumn_COLLECTION_UNRESOLVED.xml 16.5KB XML metadata file
v1_file_metadata.tar.gz 91.7KB File level metadata
v2_file_metadata.tar.gz 103.5KB File level metadata

Ancillary Files: 3

Files File Size Description
asvp.tar.gz 324.8KB Sound Speed Profiles (SSP or SVP)
ctd.tar.gz 1.84MB Conductivity, Temperature, Depth (CTD) data
xbt.tar.gz 0.92MB Expendable Bathythermograph (XBT) data

Water Column Sonar Data

Water Column Sonar Data Available: WCSD Map Viewer